Temperature
15 15 15 15 15 15 16 16 16 16 16 16 16 16 16 16 16 16 16 15 15 15 15 15 15 15 15 15 15 15 15 15 15 15 14 14 14 14 14 14 13 13 14
15 15 15 15 15 15 15 15 16 16 16 16 16 16 16 16 16 15 15 15 15 15 15 15 15 15 15 14 15 15 15 14 14 14 14 14 14 13 13 13 13 13 13
15 15 15 15 15 15 15 15 15 15 16 16 16 16 16 15 15 15 15 15 15 14 14 14 14 14 14 14 14 14 14 14 14 14 14 13 13 13 13 13 13 13 13
14 14 15 15 15 15 15 15 15 15 15 15 15 15 15 15 15 15 15 15 14 14 14 14 14 14 14 14 14 14 14 14 14 14 13 13 13 13 13 13 13 13 12
14 14 14 15 15 15 15 15 15 15 15 15 15 15 15 15 15 15 15 14 14 14 14 14 14 14 14 14 14 14 14 14 14 13 13 12 12 12 12 12 12 12 12
14 14 14 14 15 15 14 15 15 15 15 15 15 15 14 14 14 14 14 14 14 14 14 14 14 14 14 14 14 14 14 14 13 13 12 12 12 12 12 12 12 12 12
14 14 14 14 14 14 14 14 14 14 14 14 14 14 14 14 14 14 14 14 14 14 14 14 14 14 14 14 14 14 13 13 12 12 12 12 12 12 12 12 12 12 11
13 13 13 14 14 14 14 14 14 14 14 14 14 14 14 14 14 14 14 14 14 14 13 13 13 13 13 13 13 13 13 13 12 12 12 12 12 12 11 12 11 11 11
13 13 13 13 13 14 14 14 14 14 14 14 14 14 14 14 14 14 14 14 14 13 13 13 13 13 13 13 13 13 13 12 11 11 11 11 11 11 11 11 11 11 11
12 12 13 13 13 13 13 13 14 14 14 14 13 13 14 14 14 14 13 13 13 13 13 13 13 13 13 13 12 12 12 12 11 11 11 11 11 11 11 11 11 11 11
12 12 12 12 12 13 13 13 13 13 13 13 13 13 13 13 13 13 13 13 13 13 13 13 12 12 12 12 12 12 12 11 11 11 11 11 11 11 11 11 11 11 10
11 12 12 12 12 12 12 12 12 12 12 13 12 12 12 12 13 12 13 13 13 12 12 12 12 12 12 11 12 12 11 11 10 11 11 11 11 10 10 10 10 10 10
11 11 11 12 12 12 12 12 12 12 12 12 12 12 12 12 12 12 12 12 12 12 12 12 12 11 11 11 11 11 11 10 10 10 10 11 10 10 10 10 10 10 10
10 10 11 11 11 11 11 11 11 11 11 11 12 12 12 12 11 11 12 12 12 12 11 11 11 11 11 11 11 10 10 10 10 10 10 10 10 10 10 10 10 10 10
10 10 10 11 11 11 11 11 11 11 11 11 11 11 11 11 11 11 11 11 11 11 11 11 11 11 11 11 10 10 10 10 10 10 10 10 10 10 10 9 9 9 9
9 9 10 10 10 10 10 10 10 11 11 11 11 11 11 11 11 11 11 11 11 11 11 11 11 10 10 10 10 10 10 10 9 9 9 10 10 10 10 10 9 9 9
9 9 9 10 10 10 10 10 10 10 10 10 10 10 10 10 10 10 10 11 11 11 11 11 10 10 10 10 10 10 10 10 9 9 9 9 9 9 9 10 10 10 9
8 9 9 9 9 10 10 9 9 10 10 10 10 10 10 10 10 10 10 10 10 10 10 10 10 10 10 10 9 9 9 9 9 9 9 9 9 9 9 9 9 9 9
8 8 9 9 9 9 9 9 9 9 9 9 9 10 10 9 9 9 10 10 10 10 10 10 10 10 9 9 9 9 9 9 9 9 9 9 9 9 9 9 9 9 9
7 7 8 8 8 8 8 8 8 8 9 9 9 9 9 9 9 9 9 9 9 9 10 9 9 9 9 9 9 9 9 9 9 9 9 9 8 8 8 8 8 8 8
7 7 7 8 8 8 7 8 8 8 8 8 9 9 8 8 8 8 9 9 9 9 9 9 9 9 9 9 8 8 8 8 8 8 8 8 8 8 8 8 8 8 8
6 7 7 7 7 7 7 7 7 7 7 8 8 8 8 8 8 8 8 8 8 8 8 9 9 8 8 8 8 7 7 7 8 8 8 8 8 8 8 8 7 7 7
6 6 6 6 7 7 6 7 6 6 7 7 7 7 8 8 8 8 7 8 8 8 8 8 8 8 8 8 8 7 7 8 7 7 7 7 7 7 7 7 7 7 7
5 6 6 6 6 6 6 6 6 6 6 6 7 7 7 7 7 7 7 7 7 8 8 8 8 8 8 7 7 7 7 7 7 6 7 7 7 7 7 7 7 7 7
5 5 5 5 5 5 5 5 5 6 6 6 6 6 6 7 7 7 7 7 7 7 7 7 7 7 7 7 7 7 7 7 7 6 6 6 6 7 7 6 6 6 6
5 5 5 5 5 5 5 5 5 5 5 6 6 6 6 6 6 6 6 6 6 7 7 7 7 7 7 7 7 7 6 6 6 6 6 5 5 6 6 6 6 6 6
Wind_Speed
2 2 4 3 4 5 6 6 7 7 8 9 10 9 10 10 10 10 10 10 9 9 10 10 10 10 9 9 10 10 9 9 9 9 10 11 11 11 10 7 7 9 10
2 4 5 4 3 5 6 6 7 7 7 9 9 9 9 9 10 10 10 9 9 9 9 9 9 9 9 8 9 9 8 8 9 8 8 9 10 10 9 9 8 8 9
3 4 6 5 4 5 6 5 6 6 7 8 9 9 9 9 9 10 9 9 9 9 9 9 9 8 8 8 7 7 7 8 8 6 5 7 8 9 8 9 9 8 8
2 4 5 4 4 4 5 5 5 6 7 8 8 9 9 9 9 9 9 9 8 9 9 9 8 8 8 7 6 7 7 7 6 4 4 6 7 8 8 8 8 8 7
2 3 4 4 4 4 4 5 5 5 6 7 8 8 8 9 9 9 9 9 8 9 9 8 8 8 7 7 6 7 7 7 5 3 5 5 6 7 7 7 7 7 7
2 3 4 4 3 4 4 4 5 5 5 6 7 7 7 8 9 9 9 9 8 8 8 8 7 7 7 6 6 6 6 5 3 4 5 4 5 6 6 6 7 6 6
2 2 4 4 4 3 4 4 5 5 5 5 6 7 7 7 7 9 9 9 9 8 8 8 7 7 7 6 6 6 6 3 3 5 4 4 5 5 5 5 5 5 5
1 1 2 3 3 3 3 3 5 5 5 5 5 6 6 7 6 8 9 9 9 8 8 8 7 7 7 6 6 6 5 2 3 3 4 4 4 3 4 4 4 4 4
1 1 1 2 2 3 3 3 4 4 5 5 4 5 5 6 7 7 8 9 9 8 8 8 7 7 7 6 6 6 4 1 2 2 3 3 3 2 3 2 3 3 3
1 1 1 0 1 2 3 3 4 4 5 4 4 4 5 6 7 7 8 8 8 8 8 8 7 7 7 6 6 5 4 3 2 2 2 3 3 3 2 2 2 2 2
2 2 2 1 0 1 2 3 4 5 5 5 4 4 5 5 6 6 6 7 8 8 8 8 8 7 6 6 6 5 4 3 2 1 1 3 2 2 2 2 1 1 2
3 3 2 2 1 1 1 2 4 4 5 5 4 4 5 4 4 4 5 6 7 8 8 8 8 8 6 5 5 5 4 3 3 1 2 2 2 2 2 2 2 1 1
3 3 3 3 2 1 1 1 2 2 3 4 4 4 4 4 4 3 4 5 6 7 7 7 8 6 5 4 4 4 3 3 2 2 2 2 2 3 3 3 3 2 2
3 3 3 3 2 2 1 1 2 2 2 2 3 4 3 3 3 3 3 4 5 5 5 5 5 5 5 5 5 4 4 3 3 2 2 2 3 3 3 3 3 3 3
4 4 4 3 3 2 1 1 2 2 2 3 4 4 4 3 4 3 3 4 4 5 5 4 4 5 5 5 5 5 5 4 4 3 2 3 3 3 3 4 4 4 4
5 5 5 4 3 2 2 2 2 2 3 3 4 5 5 4 3 4 4 4 4 5 5 5 5 5 4 5 5 5 5 5 5 4 3 4 3 4 4 4 4 4 5
6 6 5 5 4 3 2 3 3 3 3 3 3 5 5 5 4 4 4 4 4 5 5 5 5 5 4 5 5 5 5 5 5 5 4 4 4 3 3 4 5 5 5
6 6 5 5 4 4 3 3 3 3 3 3 3 4 5 5 5 4 4 4 4 4 5 4 5 5 5 5 4 4 4 5 6 5 5 5 4 3 3 3 4 5 6
6 5 5 5 5 4 3 3 3 3 3 3 3 3 4 5 6 4 4 4 4 4 4 5 5 5 5 5 4 4 4 5 5 5 5 5 5 4 3 3 3 4 6
6 5 5 4 5 4 3 2 2 3 3 3 3 4 5 5 6 5 4 5 5 4 4 5 5 5 5 4 4 4 4 5 5 5 5 5 4 4 4 4 3 3 5
6 4 4 4 4 4 3 2 3 3 3 3 3 4 5 5 5 5 4 4 5 5 5 6 5 6 4 3 2 3 4 5 5 4 4 4 4 4 4 4 3 3 4
6 5 5 5 4 4 3 3 3 3 4 3 3 3 4 4 4 4 4 4 4 4 5 6 5 4 3 3 3 3 3 4 4 4 4 4 4 3 3 4 4 4 4
7 5 5 5 5 4 4 2 1 2 3 3 3 3 3 3 3 4 5 4 4 4 5 5 5 6 5 4 4 3 3 3 2 4 4 4 4 3 4 3 4 4 4
6 5 5 5 5 4 3 3 3 4 4 5 4 3 3 3 3 4 4 4 4 4 5 5 5 5 6 6 4 4 3 2 3 3 3 3 4 4 4 3 4 4 4
6 5 4 4 4 4 4 3 4 4 4 3 3 3 3 3 3 3 3 4 4 4 5 5 5 5 5 6 5 3 3 3 4 4 4 3 3 3 3 3 3 3 4
5 5 4 4 4 4 4 4 4 5 5 3 3 3 2 2 2 3 3 3 4 4 4 5 5 5 5 5 4 4 3 3 4 4 5 4 3 2 3 3 3 3 3
Wind_Direction
149 141 134 127 131 134 133 128 128 131 140 142 141 140 138 134 130 126 120 116 116 115 113 110 108 105 100 97 95 95 94 93 92 89 90 91 92 89 85 83 89 87 85
145 142 133 120 130 135 135 134 129 129 138 144 144 144 142 139 136 132 128 125 122 117 116 113 112 109 105 100 98 97 101 100 96 94 98 99 94 92 87 76 70 82 84
129 136 138 110 109 130 128 133 134 133 138 139 146 146 146 143 140 137 132 130 128 123 119 115 112 110 108 103 99 99 98 104 103 104 119 109 103 97 92 85 81 83 82
136 142 141 117 109 117 127 126 133 137 141 141 140 147 150 148 144 140 137 134 131 127 122 117 113 111 111 107 104 102 99 98 107 128 114 100 101 100 98 93 85 81 82
140 146 134 123 118 122 129 132 127 135 142 146 146 143 151 153 149 144 141 138 134 129 125 120 118 118 115 111 108 108 108 97 114 124 102 99 100 100 100 95 89 84 80
137 144 138 137 135 130 129 138 130 127 138 146 153 153 149 152 156 150 146 142 138 134 131 127 125 126 122 121 116 114 111 114 140 116 111 106 102 104 101 98 92 86 79
133 134 146 156 157 143 140 146 137 133 135 142 150 157 156 150 156 157 150 147 145 142 139 135 136 134 132 129 125 119 118 131 114 119 116 109 100 103 103 100 99 92 86
136 133 138 144 171 159 142 158 148 145 145 145 152 158 161 159 153 162 159 153 150 149 147 144 144 143 139 134 129 123 124 170 124 121 115 107 97 108 112 107 104 99 92
59 108 127 159 169 171 164 166 166 159 155 154 154 159 164 166 160 159 166 160 156 156 155 152 150 149 146 141 134 128 131 231 149 117 130 111 104 118 125 125 120 115 107
15 30 18 255 184 183 183 178 176 168 164 161 156 157 162 166 167 161 165 167 164 163 161 159 157 155 150 146 142 139 152 216 157 142 142 123 133 138 132 142 139 132 126
344 343 350 321 250 208 198 189 185 180 172 170 163 155 164 175 176 173 166 167 173 170 166 165 161 156 154 153 151 157 189 202 180 159 142 122 161 171 166 162 141 147 159
331 328 326 316 313 267 235 208 199 195 191 192 185 178 188 187 178 179 158 165 175 173 171 169 162 164 178 169 163 185 197 208 195 182 146 156 198 200 194 195 200 196 183
307 321 315 316 327 314 240 227 215 202 203 207 197 192 197 190 174 174 170 172 178 179 182 174 174 184 194 184 185 200 208 210 205 193 167 179 216 217 212 213 218 222 218
306 305 309 321 310 308 285 211 212 210 211 221 218 205 204 206 193 189 197 198 195 192 194 195 196 196 201 197 201 207 210 216 217 210 172 192 222 228 227 224 224 230 233
302 299 299 303 298 286 282 267 227 215 219 225 226 218 211 216 206 198 202 209 211 200 195 202 206 204 207 205 208 214 218 219 221 220 196 193 224 229 234 236 234 240 246
300 297 297 292 283 280 262 272 253 233 233 228 226 227 221 221 224 211 209 213 212 208 200 203 209 211 213 213 214 217 222 219 222 225 220 197 204 225 231 238 244 251 257
298 295 293 288 282 274 266 260 263 243 233 240 241 230 224 226 228 227 215 219 216 210 203 201 203 210 214 214 216 218 223 224 224 226 229 219 212 211 227 243 250 257 263
297 297 293 287 280 268 259 261 269 259 237 239 247 237 229 228 230 234 217 218 217 210 203 202 200 206 211 214 216 219 225 224 228 228 233 228 223 226 224 236 249 262 271
295 295 295 291 280 273 268 259 269 271 249 244 248 241 231 230 230 235 230 220 213 212 203 202 204 207 210 214 219 223 228 229 230 225 233 229 222 226 236 228 244 259 272
298 293 293 298 283 277 273 267 271 275 261 255 255 248 235 231 232 232 234 220 210 217 212 206 208 208 211 208 216 230 237 238 233 229 233 225 219 223 233 242 244 251 267
299 294 294 294 296 282 274 269 270 275 265 257 260 261 242 230 231 232 235 224 214 215 217 214 211 200 196 192 212 240 248 239 239 234 231 226 222 223 230 239 254 263 271
298 294 288 283 283 273 267 269 264 272 274 264 268 268 255 238 235 233 230 223 220 217 215 209 201 202 191 191 210 221 237 231 221 240 231 229 230 225 231 242 252 260 274
292 289 283 281 280 278 269 266 259 283 277 272 272 268 266 248 236 236 236 224 220 216 217 212 201 200 196 202 213 216 229 240 250 227 226 225 225 234 237 241 252 258 265
288 286 283 278 280 283 275 256 242 258 264 267 262 264 275 253 234 230 239 233 225 222 220 216 212 212 201 201 210 232 241 254 244 246 220 226 237 244 242 244 252 259 270
292 286 279 276 274 276 277 266 251 257 265 264 264 261 278 263 236 230 235 236 231 227 224 216 213 209 208 210 207 214 224 239 236 244 248 238 240 242 246 245 251 263 276
292 289 281 274 274 273 270 267 257 260 262 249 256 258 269 277 255 242 235 230 232 230 226 218 216 211 211 214 212 213 216 222 227 229 244 250 249 253 254 250 253 267 283
Height
1518 1518 1519 1519 1520 1521 1522 1523 1523 1524 1524 1525 1525 1526 1526 1526 1526 1526 1527 1527 1527 1527 1527 1527 1527 1527 1527 1527 1527 1527 1527 1527 1527 1527 1527 1527 1526 1526 1526 1526 1527 1526 1526
1517 1518 1518 1519 1520 1521 1522 1522 1523 1524 1524 1525 1525 1525 1526 1526 1526 1526 1527 1527 1527 1527 1527 1527 1527 1527 1527 1527 1527 1527 1527 1527 1527 1527 1527 1527 1527 1527 1526 1526 1526 1526 1526
1516 1517 1518 1519 1520 1520 1521 1522 1523 1523 1523 1524 1525 1525 1525 1526 1526 1526 1527 1527 1527 1527 1527 1527 1527 1527 1527 1527 1527 1527 1527 1527 1527 1527 1527 1528 1527 1527 1527 1526 1526 1526 1526
1516 1517 1518 1518 1519 1520 1521 1521 1522 1522 1523 1523 1524 1525 1525 1525 1526 1526 1526 1526 1527 1527 1527 1527 1527 1527 1527 1527 1527 1527 1527 1527 1527 1527 1528 1528 1528 1527 1527 1527 1526 1526 1526
1516 1517 1517 1518 1519 1519 1520 1521 1521 1522 1522 1523 1523 1524 1524 1525 1525 1526 1526 1526 1526 1526 1527 1527 1527 1527 1527 1526 1526 1526 1526 1526 1527 1527 1528 1528 1528 1527 1527 1526 1526 1526 1526
1515 1516 1516 1517 1518 1519 1519 1520 1520 1521 1521 1522 1522 1523 1524 1524 1525 1525 1525 1525 1525 1526 1526 1526 1526 1526 1526 1526 1526 1526 1526 1526 1527 1527 1527 1528 1527 1527 1526 1526 1526 1525 1525
1514 1515 1516 1516 1517 1518 1518 1518 1519 1520 1520 1520 1521 1522 1523 1523 1523 1524 1524 1524 1525 1525 1525 1525 1525 1525 1525 1525 1525 1525 1525 1526 1527 1526 1527 1527 1526 1526 1526 1526 1525 1525 1524
1514 1514 1515 1515 1516 1517 1517 1517 1517 1518 1518 1519 1520 1520 1521 1522 1522 1523 1523 1523 1523 1524 1524 1524 1524 1525 1525 1524 1524 1524 1525 1525 1526 1526 1526 1526 1525 1525 1525 1525 1524 1524 1524
1513 1513 1514 1514 1515 1515 1515 1516 1516 1516 1517 1517 1518 1519 1519 1520 1521 1521 1521 1522 1522 1523 1523 1523 1523 1523 1523 1523 1523 1523 1524 1524 1525 1525 1525 1525 1524 1524 1524 1524 1523 1523 1522
1512 1512 1512 1513 1513 1513 1513 1514 1514 1515 1515 1516 1516 1517 1518 1518 1519 1519 1520 1520 1520 1521 1521 1522 1522 1522 1522 1522 1522 1522 1523 1523 1524 1523 1523 1523 1523 1523 1522 1522 1522 1522 1521
1510 1511 1511 1511 1511 1511 1511 1512 1512 1513 1514 1514 1514 1515 1516 1516 1517 1517 1517 1518 1519 1519 1520 1520 1520 1520 1520 1521 1521 1521 1521 1522 1522 1522 1522 1521 1521 1521 1521 1521 1521 1520 1520
1508 1509 1509 1509 1509 1509 1509 1510 1509 1510 1511 1512 1512 1513 1514 1514 1515 1515 1515 1516 1517 1518 1518 1518 1518 1519 1519 1519 1519 1519 1520 1520 1520 1520 1520 1519 1519 1519 1519 1519 1519 1519 1519
1507 1506 1506 1506 1507 1507 1507 1508 1507 1507 1509 1510 1510 1511 1511 1512 1513 1513 1514 1514 1515 1515 1516 1517 1517 1517 1517 1517 1517 1518 1518 1518 1518 1518 1517 1517 1517 1517 1517 1517 1517 1517 1517
1505 1504 1504 1504 1504 1504 1505 1505 1506 1506 1507 1508 1508 1508 1509 1510 1510 1511 1511 1512 1512 1513 1513 1514 1515 1515 1515 1515 1515 1515 1516 1516 1516 1516 1515 1515 1515 1515 1515 1515 1515 1515 1515
1503 1502 1502 1501 1501 1501 1502 1502 1503 1504 1504 1505 1505 1506 1507 1507 1507 1507 1508 1509 1509 1510 1511 1512 1512 1512 1513 1513 1513 1513 1513 1513 1513 1513 1512 1512 1512 1513 1513 1513 1513 1512 1512
1500 1500 1500 1499 1499 1498 1498 1499 1500 1501 1502 1502 1503 1503 1504 1504 1504 1505 1505 1506 1506 1507 1507 1508 1509 1510 1510 1510 1510 1510 1510 1511 1511 1511 1510 1510 1510 1510 1510 1510 1510 1510 1509
1498 1497 1497 1497 1496 1496 1496 1496 1497 1498 1498 1499 1499 1500 1501 1501 1501 1502 1502 1502 1503 1504 1504 1505 1506 1506 1507 1507 1507 1507 1507 1508 1507 1508 1507 1507 1507 1507 1507 1507 1507 1507 1506
1495 1494 1494 1494 1493 1494 1494 1494 1494 1494 1495 1495 1496 1496 1497 1497 1498 1498 1498 1499 1499 1500 1500 1501 1502 1503 1503 1503 1503 1503 1504 1504 1504 1505 1504 1504 1504 1504 1504 1503 1504 1503 1503
1492 1491 1491 1490 1490 1490 1490 1490 1491 1490 1491 1492 1492 1492 1493 1493 1494 1494 1495 1495 1495 1496 1496 1497 1498 1499 1499 1500 1500 1500 1500 1501 1501 1501 1501 1501 1501 1501 1501 1500 1500 1500 1500
1489 1488 1487 1487 1487 1487 1486 1487 1487 1487 1487 1488 1488 1488 1489 1489 1490 1491 1490 1491 1491 1492 1492 1493 1494 1494 1495 1496 1496 1497 1497 1497 1497 1497 1497 1497 1497 1497 1497 1497 1497 1497 1496
1486 1484 1483 1483 1483 1483 1482 1482 1483 1482 1483 1484 1484 1484 1485 1485 1486 1487 1486 1487 1487 1487 1488 1489 1489 1489 1491 1492 1493 1493 1494 1494 1493 1493 1493 1493 1493 1494 1494 1494 1493 1493 1493
1481 1480 1479 1479 1479 1479 1479 1479 1480 1479 1479 1480 1480 1480 1480 1480 1481 1482 1482 1482 1483 1483 1483 1484 1484 1485 1486 1488 1489 1490 1491 1492 1489 1489 1489 1489 1490 1490 1490 1490 1490 1489 1489
1477 1476 1475 1475 1475 1475 1476 1476 1476 1475 1475 1475 1475 1475 1475 1476 1476 1477 1478 1478 1478 1479 1478 1479 1480 1480 1481 1483 1485 1487 1488 1487 1487 1486 1485 1486 1486 1486 1487 1486 1486 1486 1485
1473 1473 1472 1472 1471 1471 1471 1471 1471 1471 1470 1470 1471 1471 1470 1471 1472 1472 1473 1473 1474 1474 1475 1475 1476 1476 1477 1478 1480 1482 1483 1483 1484 1483 1482 1483 1483 1483 1483 1483 1482 1482 1481
1469 1469 1468 1468 1468 1467 1467 1467 1468 1467 1467 1467 1467 1467 1467 1467 1468 1468 1468 1469 1469 1470 1470 1471 1471 1472 1473 1475 1476 1477 1478 1479 1479 1479 1478 1479 1479 1479 1479 1479 1479 1478 1477
1466 1465 1464 1464 1464 1463 1463 1463 1464 1463 1462 1462 1462 1463 1463 1463 1463 1463 1464 1464 1465 1465 1466 1466 1467 1468 1470 1471 1472 1473 1474 1474 1475 1475 1475 1474 1475 1475 1475 1476 1475 1474 1473